Flag for Lithuania Weather past 2 weeks in Vilnius, Lithuania

Now
81 °F

Passing clouds.


Feels Like: 80 °F
Forecast: 56 / 84 °F
Wind: 7 mph from Northeast

Location: Vilnius Airport

Current Time: Jul 24, 2014 at 6:45:47 PM

Latest Report: Jul 24, 2014 at 6:20 PM


Visibility: N/A

Pressure: 30.07 "Hg

Humidity: 37%

Dew point: 52 °F

Location of VilniusLocation

Historic Weather in Vilnius — Graph

°F

Vilnius temperature yesterday

Maximum temperature yesterday: 77 °F (at 4:20 PM)
Minimum temperature yesterday: 57 °F (at 5:50 AM)
Average temperature yesterday: 67 °F

Past Weeks' High & Low Weather Summary

 TemperatureHumidityPressure
High82 °F (Jul 15, 1:20 PM)100% (Jul 12, 6:50 AM)30.18 "Hg (Jul 12, 6:50 AM)
Low50 °F (Jul 19, 4:50 AM)31% (Jul 18, 12:50 PM)29.71 "Hg (Jul 12, 8:50 PM)
Average67 °F72%29.99 "Hg
* Reported Jul 9 5:20 PM — Jul 24 5:50 PM, Vilnius, Weather by CustomWeather, © 2014

Note: Actual official high and low records may vary slightly from our data, if they occured in-between our weather recording intervals... More about our weather records

Advertising

Vilnius weather history for previous 24 hours

 ConditionsComfort  
Time TempWeatherWind HumidityBarometerVisibility
5:50 PM
Jul 24
81 °FPassing clouds.6 mph37%30.07 "HgN/A
5:20 PM79 °FPassing clouds.8 mph39%30.07 "HgN/A
4:50 PM79 °FPassing clouds.9 mph39%30.07 "HgN/A
4:20 PM79 °FPassing clouds.7 mph42%30.07 "HgN/A
3:50 PM77 °FPassing clouds.8 mph47%30.09 "HgN/A
3:20 PM79 °FPassing clouds.9 mph39%30.09 "HgN/A
2:50 PM79 °FSunny.12 mph42%30.09 "Hg10 mi
2:20 PM79 °FPassing clouds.9 mph42%30.09 "HgN/A
1:50 PM79 °FSunny.13 mph39%30.09 "Hg10 mi
1:20 PM77 °FSunny.10 mph42%30.09 "Hg10 mi
12:50 PM77 °FSunny.13 mph42%30.12 "Hg10 mi
12:20 PM77 °FSunny.10 mph39%30.12 "Hg10 mi
11:50 AM77 °FSunny.8 mph42%30.12 "Hg10 mi
11:20 AM75 °FSunny.7 mph44%30.12 "Hg10 mi
10:50 AM75 °FSunny.7 mph47%30.12 "Hg10 mi
10:20 AM73 °FSunny.7 mph53%30.12 "Hg10 mi
9:50 AM72 °FSunny.6 mph53%30.12 "Hg10 mi
9:20 AM72 °FSunny.7 mph50%30.12 "Hg10 mi
8:50 AM70 °FSunny.6 mph53%30.12 "Hg10 mi
8:20 AM66 °FSunny.6 mph60%30.12 "Hg10 mi
7:50 AM64 °FSunny.6 mph64%30.12 "Hg10 mi
7:20 AM63 °FSunny.3 mph68%30.12 "Hg10 mi
6:50 AM59 °FSunny.2 mph77%30.12 "Hg10 mi
6:20 AM57 °FSunny.3 mph77%30.12 "Hg10 mi
5:50 AM55 °FClear.3 mph77%30.12 "Hg10 mi
5:20 AM54 °FClear.5 mph82%30.12 "Hg10 mi
4:50 AM55 °FClear.5 mph77%30.12 "Hg10 mi
4:20 AM55 °FClear.3 mph77%30.12 "Hg10 mi
3:50 AM55 °FClear.5 mph77%30.12 "Hg10 mi
3:20 AM55 °FClear.5 mph77%30.12 "Hg10 mi
2:50 AM55 °FClear.5 mph77%30.12 "Hg10 mi
2:20 AM61 °FClear.2 mph63%30.12 "Hg10 mi
1:50 AM61 °FClear.2 mph63%30.12 "Hg10 mi
1:20 AM61 °FClear.5 mph63%30.12 "Hg10 mi
12:50 AM63 °FClear.5 mph59%30.12 "Hg10 mi
12:20 AM61 °FClear.5 mph63%30.12 "Hg10 mi
11:50 PM
Jul 23
63 °FClear.5 mph59%30.12 "Hg10 mi
11:20 PM63 °FClear.5 mph59%30.12 "Hg10 mi
10:50 PM64 °FClear.5 mph56%30.12 "Hg10 mi
10:20 PM66 °FSunny.5 mph52%30.12 "Hg10 mi
9:50 PM66 °FSunny.6 mph52%30.12 "Hg10 mi
9:20 PM68 °FSunny.6 mph49%30.12 "Hg10 mi
8:50 PM70 °FSunny.6 mph50%30.09 "Hg10 mi
8:20 PM72 °FSunny.7 mph47%30.09 "Hg10 mi
7:50 PM75 °FSunny.7 mph39%30.09 "Hg10 mi
7:20 PM75 °FSunny.7 mph39%30.09 "Hg10 mi
6:50 PM77 °FSunny.8 mph36%30.09 "Hg10 mi
6:20 PM77 °FPassing clouds.8 mph36%30.09 "HgN/A
Weather by CustomWeather, © 2014

See weather overviewHow to use our weather pages